User: anonymous   Login
Location: Melbourne
(37.8170°S, 144.9670°E)
Time: 19:25:39
(UTC+11:00)
Language:

Explorer 11/Cluster Stage 4 - Orbit

View from above orbital plane
View from above orbital plane
View from above satellite
View from above satellite

Ground track
Ground track

The orbit data is extracted from the following two-line orbital elements,

1 00107U 61013A   15089.46296060  .00004845  00000-0  64820-3 0  9999
2 00107 028.7899 134.0968 0556075 323.4292 163.4302 14.06631927696882
Epoch (UTC): 30 March 2015 11:06:39
Eccentricity: 0.0556075
inclination: 28.7899°
perigee height: 468 km
apogee height: 1274 km
right ascension of ascending node: 134.0968°
argument of perigee: 323.4292°
revolutions per day: 14.06631927
mean anomaly at epoch: 163.4302°
orbit number at epoch: 69688

The dashed part of the orbit path shows where the satellite is in the earth's shadow,  

DLR